Location: Berry Creek
(51.8849°N, 111.7341°W)
Time: 05:44:38
(UTC-06:00)

Daily predictions for brighter satellites

Satellite Brightness Start Highest point End
(mag) Time Altitude Azimuth Time Altitude Azimuth Time Altitude Azimuth
Cosmos 2297 Rocket 3.6 00:07:11 10° NNW 00:11:43 30° NNE 00:11:43 30° NNE
USA 215 3.4 00:06:17 10° ENE 00:12:48 68° NNW 00:19:17 10° W
H-2A R/B 4.0 00:16:34 22° W 00:16:34 22° W 00:20:28 10° NW
Cosmos 2369 Rocket 3.3 00:30:06 41° N 00:30:06 41° N 00:34:01 10° NNE
CZ-3B DEB 4.4 00:29:12 10° WNW 00:29:43 12° WNW 00:29:43 12° WNW
Cosmos 2227 Rocket 3.4 00:32:27 10° NNW 00:36:27 39° N 00:36:27 39° N
Lacrosse 5 4.3 00:44:01 10° WNW 00:45:05 16° WNW 00:45:05 16° WNW
Cosmos 1943 Rocket 3.5 01:09:30 36° N 01:09:30 36° N 01:13:03 10° NNE
ATLAS 5 CENTAUR R/B 3.8 01:09:16 28° NNW 01:10:04 29° NNW 01:14:57 10° NE
CZ-4C R/B 3.4 01:43:11 43° N 01:43:11 43° N 01:48:42 10° NE
CZ-2C R/B 4.2 01:46:35 10° N 01:49:21 31° N 01:49:21 31° N
USA 215 3.7 01:49:04 10° E 01:55:28 58° N 02:01:52 10° WNW
Cosmos 2297 Rocket 3.9 01:51:04 10° NW 01:53:31 27° NW 01:53:31 27° NW
ATLAS 3B R/B 3.1 01:59:29 64° NNE 01:59:29 64° NNE 02:05:28 10° NE
Cosmos 2369 Rocket 4.5 02:11:50 15° NW 02:13:48 18° NNW 02:17:33 10° NNE
Cosmos 2227 Rocket 4.3 02:16:45 10° NW 02:18:15 18° NW 02:18:15 18° NW
Cosmos 1697 Rocket 4.2 02:27:45 30° ENE 02:27:45 30° ENE 02:30:58 10° NE
NOSS 3-2 (A) 4.3 02:28:29 46° ENE 02:28:29 46° ENE 02:33:20 10° NE
CZ-2D R/B 4.5 02:28:45 10° NE 02:31:45 15° E 02:32:03 15° E
Resurs 1-4 Rocket 4.4 02:30:05 10° NE 02:32:53 14° E 02:32:55 14° E
COSMOS 2455 3.6 02:38:32 50° NE 02:38:32 50° NE 02:42:53 10° NE
Cosmos 1980 Rocket 3.6 02:45:38 31° ENE 02:45:38 31° ENE 02:49:17 10° NE
USA 238 DEB 3.9 02:45:32 66° NNW 02:45:32 66° NNW 02:52:13 10° NE
USA 238 3.9 02:45:39 66° NNW 02:45:39 66° NNW 02:52:19 10° NE
SL-16 R/B 3.4 02:47:25 42° E 02:48:21 45° ENE 02:54:14 10° N
Cosmos 1943 Rocket 4.4 02:50:58 15° NW 02:52:39 17° NNW 02:56:20 10° NNE
Cosmos 2263 Rocket 3.3 02:49:07 10° NNW 02:54:23 40° NE 02:55:12 38° ENE
ATLAS 5 CENTAUR R/B 4.1 02:51:48 10° NW 02:56:21 26° N 03:01:19 10° ENE
Cosmos 1745 Rocket 4.1 03:06:20 10° N 03:11:39 67° N 03:11:39 67° N
NOSS 3-2 (C) 3.6 03:15:25 76° NE 03:15:25 76° NE 03:21:46 10° NE
Cosmos 968 Rocket 4.2 03:19:28 10° NNW 03:23:50 49° NNE 03:23:50 49° NNE
ADEOS Rocket 4.1 03:20:52 10° NNE 03:25:45 29° E 03:26:44 28° ESE
CENTAUR R/B 3.0 03:30:30 50° ESE 03:30:30 50° ESE 03:37:12 10° NE
CZ-4C R/B 4.1 03:28:19 15° NW 03:32:29 30° N 03:38:30 10° ENE
Meteor 1-11 Rocket 3.9 03:30:40 10° NNW 03:35:36 66° N 03:35:36 66° N
USA 215 3.2 03:31:40 10° ESE 03:38:16 82° NNE 03:44:50 10° WNW
Cosmos 1656 4.3 03:38:54 49° NNW 03:38:54 49° NNW 03:43:47 10° NNE
Meteor 1-10 Rocket 4.3 03:41:51 76° NNW 03:41:51 76° NNW 03:47:23 10° NNE
IRS-P3 4.4 03:43:29 10° NNE 03:48:06 61° NNW 03:48:06 61° NNW
ARIANE 5 R/B 3.0 03:44:22 10° NNE 03:49:24 53° E 03:49:27 53° ESE
ATLAS 3B R/B 3.9 03:46:42 25° WNW 03:50:01 37° NNW 03:56:27 10° NE
Lacrosse 4 Rocket 2.8 03:46:51 10° NNW 03:50:44 37° NE 03:54:40 10° ESE
Meteor 1-27 Rocket 3.8 03:51:40 75° SE 03:51:57 77° E 03:57:51 10° NNE
Cosmos 1674 Rocket 4.4 03:56:40 49° NNE 03:56:40 49° NNE 03:59:58 10° NNE
Cosmos 2322 Rocket 2.7 03:55:21 47° SE 03:55:48 48° ESE 04:01:11 10° NE
SL-16 R/B 2.6 03:59:54 49° SE 04:00:30 51° ESE 04:06:00 10° NE
Cosmos 1346 Rocket 4.0 04:04:45 39° NE 04:04:45 39° NE 04:07:27 10° NNE
ERS-1 4.4 03:59:33 10° NNE 04:04:32 81° ENE 04:04:32 81° ENE
Meteor 2-11 Rocket 4.3 04:06:59 70° WSW 04:07:22 73° WNW 04:13:33 10° N
Cosmos 1553 Rocket 4.2 04:07:46 53° WNW 04:07:55 53° WNW 04:14:13 10° N
Cosmos 1697 Rocket 3.3 04:09:28 44° NW 04:09:39 44° NW 04:15:05 10° NNE
Cosmos 1844 Rocket 4.0 04:06:56 10° NNW 04:12:11 38° NE 04:17:22 10° ESE
CBERS 1 LM4 rocket 4.3 04:07:29 10° NNE 04:11:54 76° N 04:11:54 76° N
IRS-1D 3.3 04:07:41 10° NNE 04:12:40 83° ESE 04:12:42 83° ESE
CZ-2D R/B 2.1 04:07:11 10° NNE 04:12:43 80° ESE 04:13:24 68° SSE
Resurs 1-4 Rocket 2.0 04:08:15 10° NNE 04:13:36 82° ESE 04:14:01 74° SSE
CZ-2D R/B 4.5 04:12:34 10° NNE 04:16:50 44° E 04:17:31 40° ESE
NOSS 3-2 (A) 4.3 04:15:51 36° WNW 04:17:50 46° NNW 04:24:38 10° NE
S3M 4.3 04:17:52 46° WNW 04:17:58 46° WNW 04:23:51 10° N
DNEPR-1 R/B 4.3 04:19:39 56° SSE 04:20:19 61° SE 04:25:13 10° NE
Cosmos 1777 Rocket 4.1 04:16:35 10° NNW 04:21:55 79° ENE 04:26:01 17° SSE
NPP 4.2 04:17:34 10° N 04:22:34 43° WNW 04:22:34 43° WNW
COSMOS 2455 4.1 04:21:39 25° WNW 04:23:32 30° NNW 04:28:48 10° NNE
Cosmos 2315 Rocket 3.9 04:22:52 51° S 04:24:38 88° E 04:30:55 10° N
Cosmos 2278 Rocket 4.3 04:19:56 10° NNW 04:24:44 27° NE 04:29:31 10° E
Cosmos 1461 3.6 04:26:50 46° N 04:26:50 46° N 04:30:03 10° NE
Orbus 7S? 4.3 04:25:28 53° SW 04:27:00 76° SSE 04:31:03 10° ENE
Cosmos 2360 Rocket 3.4 04:24:41 24° SSE 04:27:15 36° ESE 04:32:22 10° NE
Cosmos 1980 Rocket 2.5 04:27:24 47° WNW 04:28:01 49° NW 04:33:34 10° NNE
Cosmos 1812 3.9 04:27:40 36° ESE 04:28:11 38° E 04:31:48 10° NNE
SL-16 R/B 2.9 04:32:29 42° W 04:32:29 42° W 04:37:57 10° NNW
Cosmos 1709 Rocket 4.1 04:30:13 10° NNW 04:36:15 53° W 04:37:02 50° WSW
Cosmos 44 3.8 04:37:47 42° NW 04:38:12 44° NW 04:42:41 10° NE
Cosmos 2263 Rocket 2.9 04:33:07 10° NW 04:36:49 36° WNW 04:36:49 36° WNW
ADEOS II 3.9 04:34:27 10° NE 04:38:57 27° E 04:43:24 10° SSE
ATLAS 5 CENTAUR R/B 3.2 04:36:45 10° NW 04:42:16 49° NNE 04:48:19 10° ESE
UNKNOWN OBJECT B 2.7 04:42:55 10° NNE 04:46:21 73° N 04:46:21 73° N
Meteor 1-5 Rocket 4.3 04:43:19 10° NNW 04:48:15 46° W 04:48:15 46° W
Cosmos 1544 Rocket 3.5 04:44:06 10° N 04:48:36 87° E 04:50:19 38° SSE
Cosmos 2074 Rocket 3.9 04:43:26 10° N 04:49:45 87° W 04:55:57 10° S
Cosmos 44 Rocket 4.4 04:50:26 29° WNW 04:51:38 32° NNW 04:56:01 10° NNE
SL-8 R/B 3.7 04:57:12 53° SW 04:57:48 58° S 05:02:29 10° ESE
Meteor 1-12 Rocket 4.1 04:53:05 10° NNW 04:58:47 87° WSW 05:04:28 10° S
CZ-2C R/B 4.4 04:55:05 10° SE 04:59:31 54° ENE 05:03:56 10° N
MOZ.5/SAFIR/RUBIN 5/SL-8 4.1 05:01:26 44° W 05:01:26 44° W 05:05:43 10° NNW
ADEOS 4.1 04:57:17 10° N 05:02:12 42° WNW 05:03:14 38° W
Cosmos 2322 4.2 04:59:20 23° S 05:02:52 57° ESE 05:08:28 10° NE
Meteor 1-18 Rocket 4.3 04:59:50 21° S 05:03:35 75° E 05:09:13 10° NNE
EO 1 Del DPAF 3.6 05:01:07 10° SSE 05:04:56 65° ENE 05:08:48 10° N
Gblst 52 Del rocket 4.5 05:03:54 39° WSW 05:05:17 47° SSW 05:11:06 10° SE
Okean 3 4.1 05:05:37 37° WNW 05:05:37 37° WNW 05:09:31 10° N
Okean O Rocket 2.5 05:01:15 10° NNE 05:05:34 47° E 05:09:24 13° S
Cosmos 1867 4.1 05:05:12 10° NW 05:10:39 62° NE 05:16:03 10° ESE
MOS 1-B 4.3 05:04:48 10° NNE 05:10:40 88° ESE 05:14:46 21° SSW
ADEOS Rocket 3.0 05:06:10 10° N 05:11:39 51° WNW 05:13:41 34° WSW
Okean 1 3.4 05:11:46 28° S 05:13:48 77° E 05:17:54 10° NNE
ERBS 3.7 05:12:20 24° NW 05:13:53 37° N 05:17:11 10° E
Cosmos 1500 3.1 05:10:41 10° NNW 05:14:30 65° W 05:15:41 41° SSW
Cosmos 1378 Rocket 4.4 05:16:39 30° WNW 05:16:46 30° WNW 05:20:37 10° N
Cosmos 1844 3.9 05:11:55 10° NNW 05:17:45 77° ENE 05:23:29 10° SE
Cosmos 1975 2.8 05:16:32 10° NNW 05:20:33 58° W 05:22:26 29° SSW
COBE Rocket 4.3 05:16:04 10° N 05:20:57 48° WNW 05:22:59 31° WSW
CENTAUR R/B 3.0 05:17:40 28° W 05:21:10 56° NNW 05:28:24 10° NE
USA 215 3.5 05:15:22 10° SSE 05:21:37 45° SW 05:27:53 10° WNW
Molniya-1 3.4 05:21:55 70° WSW 05:22:12 85° NW 05:26:15 10° NE
Cosmos 1455 Rocket 3.1 05:18:05 10° NNW 05:22:23 54° W 05:24:52 24° SSW
CZ-4C R/B 3.9 05:16:34 10° NW 05:22:42 40° NNE 05:29:37 10° E
Cosmos 2184 Rocket 4.1 05:19:13 10° NNW 05:25:14 53° W 05:31:15 10° SSW
MTI 3.7 05:22:33 12° SSE 05:25:31 84° WSW 05:28:50 10° NNW
CZ-4B R/B 3.7 05:20:32 10° NNE 05:26:10 61° ESE 05:31:41 10° S
ARIANE 5 R/B 3.6 05:23:57 10° N 05:28:17 29° WNW 05:29:48 25° W
Lacrosse 4 Rocket 1.9 05:25:37 10° NW 05:29:26 35° WSW 05:33:18 10° S
PSLV R/B 3.6 05:27:57 10° NNE 05:31:42 81° WNW 05:33:55 24° SSW
Cosmos 1975 Rocket 3.8 05:32:54 30° W 05:33:53 33° WNW 05:37:51 10° N
ERS-2 4.2 05:31:26 10° NE 05:34:43 29° E 05:37:58 10° SSE
Thor Agena Rocket 4.5 05:30:47 10° SE 05:35:39 50° ENE 05:40:32 10° N
Cosmos 2322 Rocket 2.9 05:37:10 23° W 05:40:00 39° NW 05:45:16 10° NNE
Cosmos 1898 Rocket 3.5 05:36:55 10° NNW 05:42:11 84° ENE 05:47:23 10° SSE
ATLAS 3B R/B 4.2 05:36:16 10° NW 05:42:36 32° N 05:48:38 10° ENE
Cosmos 1570 Rocket 4.2 05:38:17 10° SSW 05:43:27 74° ESE 05:48:42 10° NNE
Cosmos 962 Rocket 4.5 05:38:09 10° N 05:44:26 86° W 05:50:45 10° S
SL-16 R/B 3.0 05:41:46 22° W 05:44:50 38° NW 05:50:07 10° NNE
IRS-1C Rocket 4.1 05:41:23 10° NNE 05:46:41 89° ESE 05:51:57 10° SSW
Cosmos 2237 4.3 05:42:01 12° SSW 05:47:24 80° ESE 05:53:10 10° NNE
Meteor 2-19 Rocket 4.5 05:43:02 10° N 05:49:11 88° E 05:55:16 10° S
Genesis I 4.0 05:47:29 24° W 05:49:21 39° NW 05:53:05 10° NNE
Meteor 2-9 Rocket 4.4 05:45:28 10° NNW 05:51:15 81° ENE 05:56:51 10° SSE
COSMOS 2428 3.0 05:45:45 10° SSW 05:51:23 70° ESE 05:57:04 10° NE
CZ-2D R/B 3.6 05:48:05 10° N 05:52:14 22° NW 05:54:43 17° W
Resurs 1-4 Rocket 3.6 05:49:01 10° N 05:52:51 21° NW 05:55:06 16° W
Cosmos 1536 Rocket 3.7 05:49:39 13° SSW 05:53:34 59° WNW 05:58:02 10° N
Cosmos 2219 Rocket 3.2 05:48:27 10° S 05:53:44 45° ESE 05:59:03 10° NE
Cosmos 1844 Rocket 2.8 05:50:52 10° NW 05:56:14 49° WSW 06:01:34 10° S
MOS 1 Rocket 3.8 05:54:28 10° N 05:59:01 40° WNW 06:02:24 15° SW
Cosmos 2154 Rocket 4.1 05:53:04 10° NNW 05:59:04 54° W 06:05:04 10° SSW
PSLV R/B 3.5 05:57:29 10° N 06:01:49 72° WNW 06:06:09 10° SSW
Cosmos 1812 4.1 06:02:50 18° W 06:04:13 22° WNW 06:07:17 10° NNW
Cosmos 858 Rocket 4.4 06:00:05 10° NNW 06:05:24 76° WSW 06:10:38 10° SSE
SKYMED 2 4.5 06:02:08 10° SE 06:06:22 53° ENE 06:10:37 10° N
Meteor 1-19 Rocket 4.2 06:03:29 10° SSW 06:09:09 86° WNW 06:14:58 10° NNE
Cosmos 2278 Rocket 2.2 06:03:46 10° NNW 06:09:29 81° WSW 06:15:09 10° SSE
Okean 1-7 Rocket 3.8 06:05:31 10° S 06:10:01 79° E 06:14:32 10° NNE
Meteor 1-15 Rocket 4.4 06:05:07 10° NNW 06:11:04 85° ENE 06:17:01 10° SSE
Cosmos 2360 Rocket 2.5 06:06:29 14° SW 06:11:08 50° NW 06:16:39 10° NNE
Cosmos 1937 Rocket 3.5 06:07:33 10° NNW 06:12:54 78° WSW 06:18:12 10° SSE
Cosmos 1980 Rocket 4.1 06:09:51 10° WNW 06:13:28 17° NNW 06:17:06 10° NNE
Cosmos 1340 3.6 06:10:58 15° SW 06:13:29 30° WNW 06:16:53 10° N
CZ-4B R/B 3.3 06:11:03 10° N 06:14:23 36° WNW 06:17:35 11° SW
Cosmos 1238 Rocket 2.3 06:13:10 10° SSW 06:16:03 47° WNW 06:19:00 10° N
Cosmos 1666 3.0 06:13:07 10° NNW 06:16:51 46° W 06:20:33 10° SSW
Cosmos 405 Rocket 3.7 06:14:22 10° S 06:18:19 53° E 06:22:14 10° NNE
ADEOS II 2.3 06:13:50 10° N 06:18:58 54° WNW 06:24:05 10° SW
Cosmos 1606 Rocket 3.6 06:14:58 10° N 06:19:29 90° ESE 06:23:58 10° S
Cosmos 2237 Rocket 3.4 06:14:55 10° S 06:20:17 44° ESE 06:25:41 10° NE
SL-8 Rocket 4.0 06:14:37 10° NNW 06:20:52 75° W 06:27:02 10° S
Cosmos 1743 3.7 06:18:31 10° NNW 06:21:49 27° W 06:25:05 10° SSW
Meteor 2-4 Rocket 3.7 06:17:46 10° SSW 06:23:20 89° W 06:28:49 10° NNE
Cosmos 2297 4.2 06:17:42 10° NNW 06:23:30 69° ENE 06:29:12 10° SE
Cosmos 1437 3.8 06:21:44 10° S 06:24:55 50° E 06:28:08 10° NNE
Cosmos 2181 Rocket 4.0 06:19:45 10° SSW 06:25:59 76° WNW 06:32:21 10° N
ATLAS 5 CENTAUR R/B 2.5 06:21:28 10° NW 06:27:11 54° SW 06:33:24 10° SSE
Meteor 1-31 Rocket 2.7 06:23:25 10° NNE 06:27:15 85° WNW 06:31:04 10° SSW
Cosmos 2298 Rocket 4.2 06:22:33 10° NNW 06:27:44 51° WSW 06:32:52 10° S
Feng Yun 1-1 Rocket 4.5 06:25:20 10° NNE 06:31:17 86° ESE 06:37:04 10° SSW
Cosmos 864 Rocket 4.5 06:28:28 10° NNW 06:34:41 83° W 06:40:54 10° S
Aureole 2 Rocket 3.5 06:31:33 10° S 06:34:59 47° ESE 06:38:10 10° NE
Cosmos 2341 Rocket 4.5 06:32:33 10° NNW 06:38:16 38° W 06:43:55 10° SSW
Cosmos 2333 Rocket 2.5 06:33:36 10° SSW 06:39:18 76° ESE 06:45:04 10° NNE
Cosmos 1814 Rocket 4.4 06:34:37 10° SSW 06:39:47 68° ESE 06:44:55 10° NNE
SL-8 R/B 4.4 06:35:33 10° W 06:39:56 36° SSW 06:44:18 10° SE
Okean O Rocket 2.8 06:38:03 10° N 06:41:44 26° WNW 06:45:24 10° WSW
Cosmos 1437 Rocket 3.8 06:39:39 10° N 06:43:44 55° ENE 06:47:46 10° SSE
Cosmos 2218 Rocket 4.1 06:39:46 10° NNW 06:46:05 61° W 06:52:18 10° S
